Content
SEND FEEDBACK

Daily
Averages
Monthly
Summary
United Kingdom

TYNEMOUTH, ENGLAND


Home > Europe > United Kingdom > England
Elevation: 108 feet     Latitude: 55 01N     Longitude: 001 25W

WEATHER
 
SELECT A DAY
Number of Records: 289,320;   Date Range: 7/1/96 - 10/20/14
 
SHARE

PRINT THIS DATA

[ ← Previous Day ]
WEATHER ALMANAC - OCTOBER 1, 2013
[ Next Day → ]
[ °C ]   °F
Weather ElementAverageHighLow
Temperature53.9 °F57.2 °F (3:20 pm)51.8 °F (12:50 am)
Dewpoint48.7 °F51.8 °F (9:50 pm)44.6 °F (6:20 am)
Humidity83.1 %100 % (11:50 pm)72 % (6:20 am)
Barometer29.89 in29.92 in (12:50 am)29.86 in (3:50 pm)
Wind Speed10.1 mph15 mph (11:50 am)
Wind Gust26.5 mph (11:50 am)
Weather ElementAverage
Visibility6.2 mi
Wind DirectionESE (109.3 °)

Weather ElementTotal
Precipitation---
Heating Degree Days10.5 (Base 65)
Growing Degree Days4.5 (Base 50)
Averaged from 45 records on October 1, 2013
WEATHER CONDITIONS BREAKOUT
WIND DIRECTION BREAKOUT
WEATHER BY HOUR - OCTOBER 1, 2013
[ °C ]   °F
Local TimeTemperatureDewpointHumidityBarometerVisibilityWind DirectionWind SpeedGust SpeedPrecipitationEventsConditions
12:50 AM51.8 °F48.2 °F88 %29.92 in6.2 miESE (110°)8.1 mphMostly Cloudy
1:20 AM51.8 °F48.2 °F88 %29.92 in6.2 miESE (110°)8.1 mphMostly Cloudy
1:50 AM51.8 °F48.2 °F88 %29.89 in6.2 miVariable8.1 mphMostly Cloudy
2:20 AM51.8 °F50.0 °F94 %29.89 in6.2 miEast (100°)9.2 mphMostly Cloudy
2:50 AM51.8 °F48.2 °F88 %29.89 in6.2 miESE (110°)6.9 mphMostly Cloudy
3:20 AM53.6 °F48.2 °F82 %29.89 in6.2 miESE (110°)6.9 mphMostly Cloudy
3:50 AM53.6 °F48.2 °F82 %29.89 in6.2 miVariable8.1 mphMostly Cloudy
4:20 AM51.8 °F48.2 °F88 %29.89 in6.2 miESE (110°)9.2 mphMostly Cloudy
5:20 AM51.8 °F46.4 °F82 %29.89 in6.2 miESE (110°)8.1 mphMostly Cloudy
5:50 AM53.6 °F46.4 °F77 %29.89 in6.2 miESE (110°)9.2 mphMostly Cloudy
6:20 AM53.6 °F44.6 °F72 %29.89 in6.2 miESE (110°)9.2 mphMostly Cloudy
6:50 AM53.6 °F44.6 °F72 %29.89 in6.2 miESE (110°)9.2 mphMostly Cloudy
7:20 AM53.6 °F44.6 °F72 %29.89 in6.2 miESE (110°)9.2 mphMostly Cloudy
7:50 AM53.6 °F44.6 °F72 %29.89 in6.2 miESE (110°)8.1 mphMostly Cloudy
8:20 AM53.6 °F46.4 °F77 %29.89 in6.2 miESE (110°)9.2 mphMostly Cloudy
8:50 AM53.6 °F48.2 °F82 %29.89 in6.2 miESE (110°)10.4 mphMostly Cloudy
9:20 AM55.4 °F48.2 °F77 %29.89 in6.2 miESE (120°)9.2 mphMostly Cloudy
9:50 AM55.4 °F48.2 °F77 %29.89 in6.2 miESE (120°)10.4 mphMostly Cloudy
10:20 AM55.4 °F50.0 °F82 %29.92 in6.2 miESE (120°)12.7 mphMostly Cloudy
10:50 AM55.4 °F50.0 °F82 %29.92 in6.2 miSE (130°)11.5 mphMostly Cloudy
11:20 AM55.4 °F50.0 °F82 %29.92 in6.2 miSE (130°)11.5 mphMostly Cloudy
11:50 AM55.4 °F50.0 °F82 %29.89 in6.2 miSE (130°)15.0 mph26.5 mphMostly Cloudy
12:20 PM55.4 °F50.0 °F82 %29.89 in6.2 miESE (120°)12.7 mphMostly Cloudy
12:50 PM55.4 °F50.0 °F82 %29.89 in6.2 miESE (120°)12.7 mphMostly Cloudy
1:50 PM55.4 °F48.2 °F77 %29.89 in6.2 miESE (120°)12.7 mphMostly Cloudy
2:20 PM55.4 °F48.2 °F77 %29.89 in6.2 miESE (120°)12.7 mphScattered Clouds
2:50 PM55.4 °F48.2 °F77 %29.89 in6.2 miVariable12.7 mph24.2 mphScattered Clouds
3:20 PM57.2 °F48.2 °F72 %29.89 in6.2 miESE (120°)11.5 mph24.2 mphScattered Clouds
3:50 PM55.4 °F48.2 °F77 %29.86 in6.2 miESE (120°)12.7 mphScattered Clouds
4:20 PM55.4 °F50.0 °F82 %29.89 in6.2 miESE (120°)10.4 mphPartly Cloudy
4:50 PM55.4 °F50.0 °F82 %29.86 in6.2 miESE (120°)10.4 mphPartly Cloudy
5:20 PM55.4 °F48.2 °F77 %29.89 in6.2 miSE (130°)11.5 mphPartly Cloudy
5:50 PM53.6 °F48.2 °F82 %29.89 in6.2 miESE (120°)11.5 mphPartly Cloudy
6:20 PM53.6 °F48.2 °F82 %29.89 in6.2 miSE (130°)10.4 mphPartly Cloudy
6:50 PM53.6 °F50.0 °F88 %29.89 in6.2 miSE (140°)8.1 mphPartly Cloudy
7:20 PM53.6 °F50.0 °F88 %29.89 in6.2 miSE (130°)8.1 mphPartly Cloudy
7:50 PM53.6 °F50.0 °F88 %29.89 in6.2 miSE (130°)9.2 mphPartly Cloudy
8:20 PM53.6 °F50.0 °F88 %29.89 in6.2 miSE (130°)9.2 mphScattered Clouds
8:50 PM53.6 °F50.0 °F88 %29.89 in6.2 miSE (130°)8.1 mphMostly Cloudy
9:20 PM53.6 °F50.0 °F88 %29.89 in6.2 miSE (130°)10.4 mphMostly Cloudy
9:50 PM53.6 °F51.8 °F94 %29.89 in6.2 miSE (130°)11.5 mphMostly Cloudy
10:20 PM53.6 °F51.8 °F94 %29.89 in6.2 miSE (130°)10.4 mphMostly Cloudy
10:50 PM51.8 °F50.0 °F94 %29.89 in6.2 miSE (130°)10.4 mphScattered Clouds
11:20 PM53.6 °F51.8 °F94 %29.89 in6.2 miESE (120°)10.4 mphMostly Cloudy
11:50 PM51.8 °F51.8 °F100 %29.89 in6.2 miVariable10.4 mphMostly Cloudy
Hourly data recorded from EGNT, located miles away from Tynemouth, England







STORIES FROM OUR PARTNERS